Location: Elliott Corner
(37.4627°N, 119.7746°W)
Time: 21:06:31
(UTC+00:00)

Cosmos 2322 Rocket - Pass Details

Date: 10 September 2024
Orbit: 831 x 850 km, 71.0° (Epoch: 10 October)

Event Time Altitude Azimuth Distance (km) Brightness Sun altitude
Rises 12:05:30 0° 334° (NNW) 3,414 5.3 -18.5°
Reaches altitude 10° 12:07:59 10° 332° (NNW) 2,473 4.6 -18.1°
Maximum altitude 12:13:36 66° 252° (WSW) 919 2.1 -17.0°
Drops below altitude 10° 12:19:09 10° 171° (S) 2,445 4.5 -16.0°
Sets 12:21:35 0° 168° (SSE) 3,372 5.3 -15.5°
